TimeCDT,TemperatureF,Dew PointF,Humidity,Sea Level PressureIn,VisibilityMPH,Wind Direction,Wind SpeedMPH,Gust SpeedMPH,PrecipitationIn,Events,Conditions,WindDirDegrees,DateUTC
12:53 AM,42.1,25.0,51,30.21,10.0,NNE,6.9,-,N/A,,Clear,20,2013-04-04 05:53:00
1:53 AM,39.0,25.0,57,30.19,10.0,NNE,5.8,-,N/A,,Clear,20,2013-04-04 06:53:00
2:53 AM,39.0,26.1,60,30.15,10.0,NNE,5.8,-,N/A,,Clear,20,2013-04-04 07:53:00
3:53 AM,39.9,26.1,58,30.15,10.0,NNE,4.6,-,N/A,,Clear,20,2013-04-04 08:53:00
4:53 AM,41.0,25.0,53,30.13,10.0,NE,9.2,-,N/A,,Clear,50,2013-04-04 09:53:00
5:53 AM,37.9,26.1,62,30.13,10.0,NE,6.9,-,N/A,,Clear,50,2013-04-04 10:53:00
6:53 AM,37.0,25.0,62,30.13,10.0,NNE,5.8,-,N/A,,Clear,30,2013-04-04 11:53:00
7:53 AM,41.0,25.0,53,30.14,10.0,NNE,8.1,-,N/A,,Overcast,20,2013-04-04 12:53:00
8:53 AM,43.0,24.1,47,30.14,10.0,NE,10.4,-,N/A,,Overcast,40,2013-04-04 13:53:00
9:53 AM,46.9,24.1,41,30.13,10.0,NE,9.2,-,N/A,,Overcast,50,2013-04-04 14:53:00
10:53 AM,51.1,26.1,38,30.12,10.0,NNE,8.1,-,N/A,,Overcast,30,2013-04-04 15:53:00
11:53 AM,54.0,25.0,33,30.10,10.0,Variable,5.8,-,N/A,,Mostly Cloudy,0,2013-04-04 16:53:00
12:53 PM,55.0,25.0,31,30.08,10.0,Calm,Calm,-,N/A,,Overcast,0,2013-04-04 17:53:00
1:53 PM,55.9,26.1,32,30.06,10.0,ESE,6.9,-,N/A,,Overcast,110,2013-04-04 18:53:00
2:53 PM,54.0,30.0,40,30.04,10.0,South,3.5,-,N/A,,Overcast,180,2013-04-04 19:53:00
3:53 PM,57.0,28.0,33,30.03,10.0,Calm,Calm,-,N/A,,Clear,0,2013-04-04 20:53:00
4:53 PM,57.9,28.0,32,30.02,10.0,Calm,Calm,-,N/A,,Clear,0,2013-04-04 21:53:00
5:53 PM,59.0,27.0,29,30.01,10.0,Calm,Calm,-,N/A,,Clear,0,2013-04-04 22:53:00
6:53 PM,53.1,36.0,52,30.02,10.0,WSW,3.5,-,N/A,,Clear,240,2013-04-04 23:53:00
7:53 PM,50.0,35.1,57,30.02,10.0,West,3.5,-,N/A,,Clear,270,2013-04-05 00:53:00
8:53 PM,44.1,34.0,68,30.03,10.0,Calm,Calm,-,N/A,,Clear,0,2013-04-05 01:53:00
9:53 PM,41.0,33.1,73,30.05,10.0,Calm,Calm,-,N/A,,Clear,0,2013-04-05 02:53:00
10:53 PM,39.0,33.1,79,30.06,10.0,Calm,Calm,-,N/A,,Clear,0,2013-04-05 03:53:00
11:53 PM,37.9,32.0,79,30.06,10.0,Calm,Calm,-,N/A,,Clear,0,2013-04-05 04:53:00